Location: Asarope
(8.2500°N, 4.4833°E)
Time: 23:23:27
(UTC+00:00)

Cosmos 1934 Rocket - Pass Details

Date: 07 June 2020
Orbit: 939 x 998 km, 83.0° (Epoch: 10 July)

Event Time Altitude Azimuth Distance (km) Brightness Sun altitude
Exits shadow 04:13:08 21° 216° (SW) 2,001 5.1 -16.6°
Maximum altitude 04:16:47 41° 274° (W) 1,333 4.3 -15.8°
Drops below altitude 10° 04:22:25 10° 343° (NNW) 2,648 6.4 -14.5°
Sets 04:25:03 0° 351° (N) 3,588 7.2 -14.0°
